Flag for Guinea Weather past 2 weeks in Nzérékoré, Guinea

Now
84 °F

Partly sunny.


Feels Like: 94 °F
Forecast: 64 / 94 °F
Wind: 9 mph from Northwest

Location: Roberts Field

Current Time: Jan 31, 2015 at 11:51:44 AM

Latest Report: Jan 31, 2015 at 11:00 AM


Visibility: N/A

Pressure: 29.95 "Hg

Humidity: 79%

Dew point: 77 °F

Location of NzérékoréLocation

Historic Weather in Nzérékoré — Graph

°F

Nzérékoré temperature yesterday

Maximum temperature yesterday: 93 °F (at 2:30 PM)
Minimum temperature yesterday: 75 °F (at 6:00 AM)
Average temperature yesterday: 81 °F

Past Weeks' High & Low Weather Summary

 TemperatureHumidityPressure
High104 °F (Jan 31, 6:00 AM)100% (Jan 18, 3:30 AM)29.98 "Hg (Jan 18, 3:30 AM)
Low50 °F (Jan 19, 4:30 AM)10% (Jan 31, 6:30 AM)29.56 "Hg (Jan 28, 6:30 PM)
Average81 °F82%29.88 "Hg
* Reported Jan 16 10:00 AM — Jan 31 10:30 AM, Nzérékoré, Weather by CustomWeather, © 2014

Note: Actual official high and low records may vary slightly from our data, if they occured in-between our weather recording intervals... More about our weather records

Advertising

Nzérékoré weather history for previous 24 hours

 ConditionsComfort  
Time TempWeatherWind HumidityBarometerVisibility
10:30 AM
Jan 31
82 °FPartly sunny.8 mph79%29.95 "HgN/A
10:00 AM79 °FPartly sunny.7 mph84%29.95 "Hg6 mi
9:30 AM79 °FPartly sunny.3 mph94%29.95 "Hg6 mi
9:00 AM77 °FPartly sunny.5 mph94%29.92 "Hg4 mi
8:30 AM77 °FFog.No wind94%29.92 "Hg3 mi
8:00 AM75 °FFog.No wind100%29.92 "Hg2 mi
7:30 AM75 °FFog.No wind100%29.89 "Hg1 mi
7:00 AM75 °FFog.No wind100%29.89 "Hg0 mi
6:30 AM104 °FExtremely hot.N/A10%N/AN/A
6:00 AM104 °FExtremely hot.N/A12%N/AN/A
5:30 AM75 °FFog.No wind94%29.89 "Hg1 mi
5:00 AM75 °FFog.No wind94%29.89 "Hg1 mi
4:00 AM75 °FPassing clouds.No wind94%29.89 "Hg5 mi
2:00 AM75 °FPassing clouds.No wind94%29.89 "Hg5 mi
1:30 AM75 °FPassing clouds.No wind94%29.89 "Hg5 mi
1:00 AM75 °FPassing clouds.No wind94%29.92 "Hg5 mi
11:00 PM
Jan 30
75 °FPassing clouds.No wind94%29.92 "Hg5 mi
10:30 PM75 °FPassing clouds.No wind94%29.92 "Hg5 mi
10:00 PM75 °FPassing clouds.No wind94%29.92 "Hg5 mi
9:30 PM77 °FPassing clouds.No wind94%29.92 "HgN/A
9:00 PM79 °FPassing clouds.No wind89%29.86 "HgN/A
8:30 PM79 °FPassing clouds.No wind89%29.86 "HgN/A
8:00 PM79 °FPassing clouds.No wind89%29.86 "HgN/A
7:30 PM79 °FPassing clouds.No wind89%29.86 "HgN/A
7:00 PM81 °FPassing clouds.No wind84%29.86 "HgN/A
6:30 PM82 °FPassing clouds.No wind79%29.83 "HgN/A
6:00 PM84 °FPassing clouds.7 mph70%29.83 "HgN/A
5:30 PM86 °FScattered clouds.8 mph66%29.83 "HgN/A
5:00 PM88 °FBroken clouds.10 mph66%29.80 "HgN/A
4:30 PM86 °FScattered clouds.14 mph70%29.80 "HgN/A
4:00 PM88 °FScattered clouds.9 mph70%29.80 "HgN/A
3:30 PM90 °FScattered clouds.12 mph67%29.80 "HgN/A
3:00 PM91 °FScattered clouds.8 mph63%29.83 "HgN/A
2:30 PM93 °FPartly sunny.12 mph56%29.83 "HgN/A
2:00 PM90 °FPartly sunny.12 mph59%29.83 "HgN/A
1:30 PM90 °FPartly sunny.12 mph63%29.86 "HgN/A
1:00 PM90 °FPartly sunny.6 mph59%29.86 "HgN/A
12:30 PM86 °FPartly sunny.N/A70%29.89 "HgN/A
12:00 PM86 °FPartly sunny.9 mph66%29.92 "Hg6 mi
11:30 AM84 °FPartly sunny.6 mph70%29.92 "Hg6 mi
11:00 AM84 °FPartly sunny.6 mph74%29.92 "Hg6 mi
Weather by CustomWeather, © 2014

See weather overviewHow to use our weather pages